Station 44032 - Buoy E01 - Central Maine Shelf Image indicating link to RSS feed of recent meteorological observations for station 44032


Conditions at 44032 as of
(1:04 am EDT)
0504 GMT on 05/21/2024:
Note: This report is more than two hours old
     

Click on the graph icon in the table below to see a time series plot of the last five days of that observation.

5-day plot - Wind Direction Wind Direction (WDIR):SSW ( 210 deg true )
5-day plot - Wind Speed Wind Speed (WSPD): 9.7 kts
5-day plot - Wind Gust Wind Gust (GST): 11.7 kts
5-day plot - Wave Height Wave Height (WVHT): 3.9 ft
5-day plot - Dominant Wave Period Dominant Wave Period (DPD): 8 sec
5-day plot - Atmospheric Pressure Atmospheric Pressure (PRES):29.99 in
5-day plot - Air Temperature Air Temperature (ATMP): 48.9 °F
5-day plot - Visibility Visibility (VIS) (0 to 1.6 nmi): 0.5 nmi
5-day plot - Wind Chill Wind Chill (CHILL): 44.2 °F
5-day plot - Wind Speed at 10 Meters Wind Speed at 10 meters (WSPD10M): 9.7 kts
5-day plot - Wind Speed at 20 Meters Wind Speed at 20 meters (WSPD20M): 11.7 kts
5-day plot -  Wind Speed, Wind Gust and Atmospheric Pressure Combined plot of Wind Speed, Gust, and Air Pressure
Previous observations
TIME
(EDT)
5-day plot - Wind Direction
WDIR
 
5-day plot - Wind Speed
WSPD
kts
5-day plot - Wind Gust
GST
kts
5-day plot - Wave Height
WVHT
ft
5-day plot - Dominant Wave Period
DPD
sec
5-day plot - Average Wave Period
APD
sec
5-day plot - Mean Wave Direction
MWD
 
5-day plot - Atmospheric Pressure
PRES
in
5-day plot - Pressure Tendency
PTDY
in
5-day plot - Air Temperature
ATMP
°F
5-day plot - Water Temperature
WTMP
°F
5-day plot - Dew Point
DEWP
°F
5-day plot - Salinity
SAL
psu
5-day plot - Visibility
VIS
nmi
5-day plot - Tide (above MLLW)
TIDE
ft
2024-05-21 12:04 amSSW 9.7 11.7 3.3 8--30.00- 48.7--- 0.6-
2024-05-20 11:04 pm S 9.7 9.7 3.6 11--30.00- 48.7--- 1.0-
2024-05-20 10:04 pm S 7.8 7.8 3.9 8--30.00- 50.4--- 1.6-
2024-05-20 09:04 pmSSW 5.8 7.8 3.6 8--29.99- 50.4--- 1.6-
2024-05-20 08:04 pmSSW 7.8 7.8 3.9 8--29.99- 50.4--- 1.4-
2024-05-20 07:04 pm S 7.8 9.7 3.9 8--30.00- 50.9--- 1.6-
2024-05-20 06:04 pm S 7.8 9.7 3.6 8--30.01- 51.3--- 1.6-
2024-05-20 05:04 pm S 7.8 9.7 4.3 8--30.02- 51.1--- 1.6-
2024-05-20 04:04 pm S 7.8 7.8 4.6 8--30.04- 50.9--- 1.6-
2024-05-20 03:04 pm S 9.7 11.7 4.3 8--30.05- 50.5--- 1.6-
2024-05-20 02:04 pm S 5.8 7.8 3.9 8--30.06- 50.7--- 1.6-
2024-05-20 01:04 pm S 5.8 7.8 3.9 8--30.06- 50.5--- 1.6-
2024-05-20 12:04 pm S 5.8 7.8 3.3 8--30.07- 50.4--- 1.6-
2024-05-20 11:04 amSSE 5.8 5.8 3.6 8--30.06- 50.5--- 1.6-
2024-05-20 10:04 amSSE 3.9 3.9 3.6 8--30.06- 50.5--- 1.6-
2024-05-20 09:04 amESE 3.9 5.8 3.6 8--30.07- 49.8--- 1.6-
2024-05-20 08:04 amESE 5.8 7.8 3.9 8--30.06- 49.3--- 1.6-
2024-05-20 07:04 amENE 3.9 3.9 4.3 8--30.06- 48.0--- 1.6-
2024-05-20 06:04 am NE 1.9 3.9 4.6 8--30.06- 47.7--- 1.6-
2024-05-20 05:04 am N 3.9 3.9 4.6 8--30.06- 47.5--- 1.6-
2024-05-20 04:04 am N 3.9 3.9 4.9 8--30.05- 48.2--- 1.6-
2024-05-20 03:04 amNNE 3.9 3.9 4.6 8--30.04- 48.4--- 1.6-

Disclaimer: Ocean current directions are reported to the nearest 10 degrees and speeds are measured to the nearest whole centimeter per second.

Ocean Current Data for 44032

Unit of Measure:   Time Zone:   
1:04 am EDT12:04 am EDT
Depth
ft
Dir
°
Speed
kts
Dir
°
Speed
kts
7 200 0.39220 0.35
33 220 0.47210 0.43
46 220 0.62210 0.43
59 230 0.60220 0.43
72 230 0.68220 0.49
85 220 0.68210 0.54
98 230 0.68210 0.54
112 230 0.64210 0.52
125 230 0.56220 0.47
138 230 0.51230 0.39
151 220 0.39230 0.29
164 220 0.29230 0.21
177 220 0.25240 0.17
190 220 0.21240 0.19
203 210 0.17240 0.21
217 200 0.19240 0.16
230 200 0.23230 0.16
243 190 0.25220 0.17
256 190 0.27210 0.17
269 190 0.29200 0.19
282 180 0.31190 0.19
295 180 0.27190 0.16

Previous (up to 48) reports of ocean current data for 44032

Ocean Current Stick Plots are available in metric units only:

All Instruments - 1-day plot - ocean current 1-day plot     3-day plot - ocean current 3-day plot     5-day plot - ocean current 5-day plot